Date String (YYYY-MM-DD hh:mm:ss) UTC,Instrument flags,absolute air pressure of the measurement (hPa),sample flow rate (lpm),inlet stack bypass flow (lpm),air temperature of the measurement (°C),ambient temperature measured by the external sensor (°C),aerosol sample conditioner tube jacket temperature (°C),OPC LED temperature (°C),internal box temperature (°C),relative humidity of the measurement (%),span deviation,mass concentration of particles derived from Lorenz-Mie calculation of OPC scattering (μg/m³),mass concentration of particles derived from Lorenz-Mie calculation of OPC scattering (μg/m³),mass concentration of particles derived from Lorenz-Mie calculation of OPC scattering (μg/m³)
DateTimeUTC,F1_M11,P_M11,Q1_M11,Q2_M11,T1_M11,T2_M11,T3_M11,T4_M11,T5_M11,U1_M11,ZSPAN_M11,X0_M11,X2_M11,X1_M11
2023-07-28 13:00:00,SystemResetWarning,0835.1,5.01,000.00,029.5,026.0,000.0,038.0,030.8,30.7,0000.0,0013.95,0004.42,0003.33
2023-07-28 13:01:00,SystemResetWarning,0835.1,5.00,000.00,029.5,026.4,000.0,038.0,030.8,30.4,0000.0,0013.63,0004.42,0003.33
2023-07-28 13:02:00,SystemResetWarning,0835.1,5.00,000.00,029.5,026.7,000.0,038.0,030.9,30.0,0000.0,0013.15,0004.43,0003.34
2023-07-28 13:03:00,SystemResetWarning,0835.1,5.00,000.00,029.5,027.0,000.0,038.0,030.9,29.4,0000.0,0012.87,0004.43,0003.35
2023-07-28 13:04:00,SystemResetWarning,0835.1,5.00,000.00,029.5,027.3,000.0,038.0,030.9,29.0,0000.0,0013.11,0004.38,0003.35
2023-07-28 13:05:00,SystemResetWarning,0835.1,5.00,000.00,029.5,027.5,000.0,038.0,031.0,28.9,0000.0,0012.33,0004.31,0003.34
2023-07-28 13:06:00,SystemResetWarning,0835.0,5.00,000.00,029.5,027.6,000.0,038.0,031.0,28.6,0000.0,0011.61,0004.28,0003.34
2023-07-28 13:07:00,SystemResetWarning,0835.0,5.00,000.00,029.5,027.8,000.0,038.0,031.0,28.5,0000.0,0012.30,0004.30,0003.35
2023-07-28 13:08:00,SystemResetWarning,0835.0,4.99,000.00,029.5,027.9,000.0,038.0,031.1,28.0,0000.0,0012.28,0004.25,0003.35
2023-07-28 13:09:00,SystemResetWarning,0835.0,4.99,000.00,029.5,028.0,000.0,038.0,031.1,27.7,0000.0,0012.94,0004.23,0003.34
2023-07-28 13:10:00,SystemResetWarning,0835.0,5.00,000.00,029.5,028.1,000.0,038.0,031.1,27.4,0000.0,0012.16,0004.22,0003.34
2023-07-28 13:11:00,SystemResetWarning,0835.0,5.00,000.00,029.6,028.2,000.0,038.0,031.1,26.8,0000.0,0012.60,0004.23,0003.34
2023-07-28 13:12:00,SystemResetWarning,0835.0,5.01,000.00,029.6,028.2,000.0,038.0,031.2,26.4,0000.0,0012.89,0004.24,0003.33
2023-07-28 13:13:00,SystemResetWarning,0835.0,5.01,000.00,029.6,028.3,000.0,038.1,031.2,26.8,0000.0,0012.91,0004.26,0003.33
2023-07-28 13:14:00,SystemResetWarning,0835.0,5.01,000.00,029.6,028.3,000.0,038.1,031.2,27.3,0000.0,0012.95,0004.23,0003.32
2023-07-28 13:15:00,SystemResetWarning,0835.0,5.00,000.00,029.7,028.3,000.0,038.1,031.2,27.3,0000.0,0012.16,0004.18,0003.32
2023-07-28 13:16:00,SystemResetWarning,0835.0,4.99,000.00,029.7,028.4,000.0,038.1,031.3,26.9,0000.0,0011.64,0004.17,0003.33
2023-07-28 13:17:00,SystemResetWarning,0835.1,4.99,000.00,029.7,028.4,000.0,038.1,031.3,26.8,0000.0,0011.40,0004.16,0003.33
2023-07-28 13:18:00,SystemResetWarning,0835.2,5.01,000.00,029.7,028.4,000.0,038.1,031.3,27.2,0000.0,0010.67,0004.14,0003.33
2023-07-28 13:19:00,SystemResetWarning,0835.2,5.01,000.00,029.7,028.5,000.0,038.1,031.3,27.9,0000.0,0010.50,0004.12,0003.33
2023-07-28 13:20:00,SystemResetWarning,0835.2,5.00,000.00,029.8,028.5,000.0,038.2,031.4,29.5,0000.0,0009.43,0004.08,0003.33
2023-07-28 13:21:00,SystemResetWarning,0835.3,5.00,000.00,029.8,028.5,000.0,038.2,031.4,29.3,0000.0,0008.98,0004.01,0003.32
2023-07-28 13:22:00,SystemResetWarning,0835.3,5.00,000.00,029.8,028.6,000.0,038.2,031.4,28.8,0000.0,0009.53,0004.00,0003.33
2023-07-28 13:23:00,SystemResetWarning,0835.3,5.00,000.00,029.8,028.6,000.0,038.2,031.4,29.7,0000.0,0008.72,0004.03,0003.33
2023-07-28 13:24:00,SystemResetWarning,0835.3,4.99,000.00,029.8,028.1,000.0,038.2,031.4,29.9,0000.0,0008.93,0003.99,0003.33
2023-07-28 13:25:00,SystemResetWarning,0835.3,5.00,000.00,029.8,026.3,000.0,038.1,031.2,30.0,0000.0,0008.73,0003.93,0003.32
2023-07-28 13:26:00,SystemResetWarning,0835.2,5.00,000.00,029.7,025.6,000.0,038.0,030.9,30.2,0000.0,0008.63,0003.93,0003.32
2023-07-28 13:27:00,SystemResetWarning,0835.2,5.02,000.00,029.6,025.7,000.0,038.0,030.7,30.5,0000.0,0008.61,0003.93,0003.32
2023-07-28 13:28:00,SystemResetWarning,0835.2,5.00,000.00,029.5,026.1,000.0,038.0,030.7,30.2,0000.0,0008.60,0003.90,0003.30
2023-07-28 13:29:00,SystemResetWarning,0835.2,4.99,000.00,029.5,026.4,000.0,038.0,030.8,30.4,0000.0,0008.62,0003.84,0003.29
2023-07-28 13:30:00,SystemResetWarning,0835.3,4.99,000.00,029.5,026.8,000.0,038.0,030.9,30.0,0000.0,0008.86,0003.81,0003.28
2023-07-28 13:31:00,SystemResetWarning,0835.3,5.00,000.00,029.5,027.1,000.0,038.0,030.9,29.9,0000.0,0008.88,0003.82,0003.28
2023-07-28 13:32:00,SystemResetWarning,0835.3,5.00,000.00,029.5,027.3,000.0,038.0,031.0,30.0,0000.0,0008.91,0003.82,0003.27
2023-07-28 13:33:00,SystemResetWarning,0835.3,5.01,000.00,029.5,027.5,000.0,038.0,031.0,29.9,0000.0,0008.22,0003.78,0003.26
2023-07-28 13:34:00,SystemResetWarning,0835.3,5.01,000.00,029.5,027.7,000.0,038.0,031.0,29.8,0000.0,0007.94,0003.69,0003.23
2023-07-28 13:35:00,SystemResetWarning,0835.3,5.00,000.00,029.5,027.9,000.0,038.0,031.1,29.5,0000.0,0007.55,0003.66,0003.21
2023-07-28 13:36:00,SystemResetWarning,0835.2,4.99,000.00,029.5,028.0,000.0,038.0,031.1,29.5,0000.0,0007.45,0003.68,0003.20
2023-07-28 13:37:00,SystemResetWarning,0835.3,5.00,000.00,029.5,028.1,000.0,038.0,031.1,29.2,0000.0,0007.63,0003.68,0003.20
2023-07-28 13:38:00,SystemResetWarning,0835.2,5.00,000.00,029.6,028.2,000.0,038.0,031.2,29.5,0000.0,0007.72,0003.68,0003.19
2023-07-28 13:39:00,SystemResetWarning,0835.2,5.00,000.00,029.6,028.2,000.0,038.0,031.2,29.2,0000.0,0008.18,0003.69,0003.19
2023-07-28 13:40:00,SystemResetWarning,0835.1,5.00,000.00,029.6,028.3,000.0,038.1,031.2,28.6,0000.0,0008.91,0003.74,0003.19
2023-07-28 13:41:00,SystemResetWarning,0835.1,5.01,000.00,029.6,028.4,000.0,038.1,031.3,29.2,0000.0,0008.58,0003.77,0003.21
2023-07-28 13:42:00,SystemResetWarning,0835.1,5.00,000.00,029.7,028.4,000.0,038.1,031.3,30.0,0000.0,0009.14,0003.79,0003.22
2023-07-28 13:43:00,SystemResetWarning,0835.1,5.00,000.00,029.7,028.4,000.0,038.1,031.3,29.7,0000.0,0009.18,0003.81,0003.23
2023-07-28 13:44:00,SystemResetWarning,0835.2,5.00,000.00,029.7,028.5,000.0,038.1,031.3,29.8,0000.0,0009.38,0003.87,0003.24
2023-07-28 13:45:00,SystemResetWarning,0835.1,5.00,000.00,029.7,028.5,000.0,038.1,031.3,29.3,0000.0,0009.53,0003.92,0003.27
2023-07-28 13:46:00,SystemResetWarning,0835.1,4.99,000.00,029.7,027.9,000.0,038.1,031.3,28.6,0000.0,0010.35,0003.97,0003.30
2023-07-28 13:47:00,SystemResetWarning,0835.1,5.00,000.00,029.7,026.4,000.0,038.0,031.1,27.8,0000.0,0010.85,0004.03,0003.31
2023-07-28 13:48:00,SystemResetWarning,0835.0,5.01,000.00,029.6,025.9,000.0,037.9,031.0,27.5,0000.0,0010.73,0004.03,0003.32
2023-07-28 13:49:00,SystemResetWarning,0835.0,5.01,000.00,029.5,026.1,000.0,037.9,030.8,27.5,0000.0,0010.57,0004.04,0003.33
2023-07-28 13:50:00,SystemResetWarning,0835.0,5.00,000.00,029.5,026.4,000.0,038.0,030.8,27.5,0000.0,0010.61,0004.08,0003.34
2023-07-28 13:51:00,SystemResetWarning,0835.0,5.00,000.00,029.5,026.8,000.0,038.0,030.9,27.1,0000.0,0009.72,0004.10,0003.35
2023-07-28 13:52:00,SystemResetWarning,0835.0,5.01,000.00,029.5,027.1,000.0,038.0,030.9,27.6,0000.0,0009.53,0004.08,0003.35
2023-07-28 13:53:00,SystemResetWarning,0835.0,5.00,000.00,029.5,027.3,000.0,038.0,031.0,28.4,0000.0,0009.19,0004.06,0003.34
2023-07-28 13:54:00,SystemResetWarning,0835.0,4.99,000.00,029.5,027.6,000.0,038.0,031.0,29.3,0000.0,0008.89,0004.05,0003.32
2023-07-28 13:55:00,SystemResetWarning,0835.0,4.99,000.00,029.5,027.7,000.0,038.0,031.1,30.0,0000.0,0008.88,0004.02,0003.31
2023-07-28 13:56:00,SystemResetWarning,0835.0,4.99,000.00,029.5,027.9,000.0,038.0,031.1,29.7,0000.0,0008.74,0003.99,0003.30
2023-07-28 13:57:00,SystemResetWarning,0834.9,5.00,000.00,029.5,028.0,000.0,038.0,031.1,30.2,0000.0,0008.66,0003.97,0003.29
2023-07-28 13:58:00,SystemResetWarning,0835.0,5.00,000.00,029.6,028.1,000.0,038.0,031.2,30.0,0000.0,0007.60,0003.92,0003.28
2023-07-28 13:59:00,SystemResetWarning,0835.0,5.01,000.00,029.6,028.2,000.0,038.0,031.2,29.9,0000.0,0007.41,0003.88,0003.28
